| time (UTC) | temp F | wind direction | speed knots | gust knots | rain 1hr in | rain 24hr in | rain mn in | humidity % | barometer mb |
| 20260503214503 | 76 | 69 | 0.0 | 1.7 | 0.00 | 0.00 | 0.00 | 47 | 1011.0 |
| 20260503213004 | 76 | 68 | 0.0 | 1.7 | 0.00 | 0.00 | 0.00 | 47 | 1011.1 |
| 20260503211504 | 75 | 83 | 0.9 | 2.6 | 0.00 | 0.00 | 0.00 | 47 | 1011.2 |
| 20260503210005 | 75 | 66 | 0.0 | 1.7 | 0.00 | 0.00 | 0.00 | 50 | 1011.4 |
| 20260503203005 | 74 | 90 | 0.0 | 3.5 | 0.00 | 0.00 | 0.00 | 51 | 1011.7 |
| 20260503201505 | 73 | 142 | 0.0 | 2.6 | 0.00 | 0.00 | 0.00 | 53 | 1011.8 |
| 20260503193006 | 71 | 135 | 0.0 | 1.7 | 0.00 | 0.00 | 0.00 | 57 | 1012.4 |
| 20260503191507 | 71 | 87 | 0.0 | 1.7 | 0.00 | 0.00 | 0.00 | 57 | 1012.6 |
| 20260503184504 | 69 | 88 | 0.0 | 0.9 | 0.00 | 0.00 | 0.00 | 59 | 1012.8 |
| 20260503183005 | 68 | 88 | 0.0 | 2.6 | 0.00 | 0.00 | 0.00 | 62 | 1013.0 |
| 20260503181505 | 68 | 92 | 0.0 | 2.6 | 0.00 | 0.00 | 0.00 | 63 | 1013.1 |
| 20260503180006 | 67 | 81 | 0.0 | 1.7 | 0.00 | 0.00 | 0.00 | 64 | 1013.3 |
| 20260503174502 | 66 | 70 | 0.0 | 0.9 | 0.00 | 0.00 | 0.00 | 66 | 1013.3 |
| 20260503173003 | 66 | 87 | 0.0 | 2.6 | 0.00 | 0.00 | 0.00 | 66 | 1013.3 |
| 20260503171503 | 65 | 92 | 0.0 | 2.6 | 0.00 | 0.00 | 0.00 | 67 | 1013.4 |
| 20260503071505 | 58 | 80 | 0.0 | 0.0 | 0.00 | 0.00 | 0.00 | 77 | 1014.0 |
| 20260503054504 | 60 | 80 | 0.0 | 0.0 | 0.00 | 0.00 | 0.00 | 72 | 1013.8 |
| 20260503051505 | 61 | 80 | 0.0 | 0.0 | 0.00 | 0.00 | 0.00 | 69 | 1013.7 |
| 20260503050005 | 62 | 80 | 0.0 | 0.0 | 0.00 | 0.00 | 0.00 | 67 | 1013.6 |
| 20260503044504 | 63 | 80 | 0.0 | 0.0 | 0.00 | 0.00 | 0.00 | 64 | 1013.5 |
| 20260503043003 | 64 | 80 | 0.0 | 0.0 | 0.00 | 0.00 | 0.00 | 64 | 1013.4 |
| 20260503041502 | 64 | 80 | 0.0 | 0.0 | 0.00 | 0.00 | 0.00 | 61 | 1013.1 |
| 20260503040004 | 65 | 80 | 0.0 | 0.0 | 0.00 | 0.00 | 0.00 | 60 | 1013.0 |
| 20260503034503 | 66 | 80 | 0.0 | 0.0 | 0.00 | 0.00 | 0.00 | 58 | 1012.8 |
| 20260503033005 | 67 | 80 | 0.0 | 0.0 | 0.00 | 0.00 | 0.00 | 57 | 1012.6 |
| 20260503024503 | 69 | 80 | 0.0 | 0.0 | 0.00 | 0.00 | 0.00 | 56 | 1012.2 |
| 20260503021504 | 70 | 80 | 0.0 | 0.0 | 0.00 | 0.00 | 0.00 | 54 | 1012.2 |
| 20260503020005 | 71 | 80 | 0.0 | 1.7 | 0.00 | 0.00 | 0.00 | 53 | 1012.1 |
| 20260503014504 | 71 | 80 | 0.0 | 1.7 | 0.00 | 0.00 | 0.00 | 52 | 1012.1 |
| 20260503013005 | 71 | 78 | 0.0 | 1.7 | 0.00 | 0.00 | 0.00 | 51 | 1012.1 |
| 20260503011505 | 72 | 77 | 0.0 | 1.7 | 0.00 | 0.00 | 0.00 | 51 | 1012.2 |
| 20260503010006 | 72 | 77 | 0.0 | 2.6 | 0.00 | 0.00 | 0.00 | 50 | 1012.2 |
| 20260503003005 | 72 | 148 | 0.0 | 2.6 | 0.00 | 0.00 | 0.00 | 49 | 1012.4 |
| 20260503001506 | 72 | 82 | 0.0 | 1.7 | 0.00 | 0.00 | 0.00 | 50 | 1012.4 |
| 20260503000005 | 72 | 100 | 0.9 | 3.5 | 0.00 | 0.00 | 0.00 | 52 | 1012.5 |
| 20260502234504 | 71 | 153 | 0.0 | 1.7 | 0.00 | 0.00 | 0.00 | 53 | 1012.6 |
| 20260502233005 | 71 | 94 | 0.9 | 4.3 | 0.00 | 0.00 | 0.00 | 53 | 1012.9 |
| 20260502231504 | 71 | 83 | 0.9 | 2.6 | 0.00 | 0.00 | 0.00 | 54 | 1013.1 |
| 20260502230003 | 71 | 118 | 0.0 | 1.7 | 0.00 | 0.00 | 0.00 | 55 | 1013.3 |
| 20260502224503 | 71 | 123 | 0.9 | 3.5 | 0.00 | 0.00 | 0.00 | 56 | 1013.5 |
| 20260502223004 | 71 | 78 | 0.9 | 3.5 | 0.00 | 0.00 | 0.00 | 57 | 1013.8 |
| 20260502221504 | 70 | 130 | 0.0 | 3.5 | 0.00 | 0.00 | 0.00 | 58 | 1013.9 |
| 20260502220007 | 70 | 103 | 0.0 | 2.6 | 0.00 | 0.00 | 0.00 | 60 | 1014.0 |